| time (UTC) | temp F | wind direction | speed knots | gust knots | rain 1hr in | rain 24hr in | rain mn in | humidity % | barometer mb |
| 20260831203959 | 63 | 235 | 3.5 | 7.8 | 0.00 | 0.15 | 0.15 | 78 | 1016.7 |
| 20260831203500 | 63 | 235 | 4.3 | 7.8 | 0.00 | 0.15 | 0.15 | 78 | 1016.7 |
| 20260831202959 | 63 | 241 | 3.5 | 6.1 | 0.00 | 0.15 | 0.15 | 78 | 1016.7 |
| 20260831202839 | 63 | 254 | 2.6 | 8.7 | 0.00 | 0.15 | 0.15 | 78 | 1016.7 |
| 20260831201958 | 63 | 231 | 4.3 | 8.7 | 0.00 | 0.15 | 0.15 | 78 | 1016.6 |
| 20260831201457 | 63 | 238 | 3.5 | 6.1 | 0.00 | 0.15 | 0.15 | 78 | 1016.6 |
| 20260831200957 | 62 | 238 | 2.6 | 6.1 | 0.00 | 0.15 | 0.15 | 78 | 1016.6 |
| 20260831200458 | 62 | 235 | 3.5 | 6.1 | 0.00 | 0.15 | 0.15 | 78 | 1016.5 |
| 20260831195958 | 62 | 238 | 2.6 | 6.1 | 0.00 | 0.15 | 0.15 | 78 | 1016.5 |
| 20260831195459 | 62 | 228 | 4.3 | 6.1 | 0.00 | 0.15 | 0.15 | 78 | 1016.3 |
| 20260831194958 | 62 | 237 | 2.6 | 4.3 | 0.00 | 0.15 | 0.15 | 77 | 1016.3 |
| 20260831194457 | 62 | 269 | 0.0 | 0.0 | 0.00 | 0.15 | 0.15 | 76 | 1016.2 |
| 20260831194338 | 62 | 271 | 0.0 | 0.0 | 0.00 | 0.15 | 0.15 | 76 | 1016.1 |
| 20260831193457 | 62 | 271 | 0.0 | 0.0 | 0.00 | 0.15 | 0.15 | 76 | 1016.1 |
| 20260831193000 | 62 | 271 | 0.0 | 0.0 | 0.00 | 0.15 | 0.15 | 75 | 1016.1 |
| 20260831192457 | 62 | 271 | 0.0 | 0.0 | 0.00 | 0.15 | 0.15 | 75 | 1016.0 |
| 20260831191957 | 63 | 271 | 0.0 | 0.0 | 0.00 | 0.15 | 0.15 | 75 | 1016.0 |
| 20260831191838 | 63 | 272 | 0.0 | 0.0 | 0.00 | 0.15 | 0.15 | 74 | 1015.9 |
| 20260831190958 | 64 | 272 | 0.0 | 0.0 | 0.00 | 0.15 | 0.15 | 74 | 1015.8 |
| 20260831190457 | 64 | 272 | 0.0 | 2.6 | 0.00 | 0.15 | 0.15 | 73 | 1015.8 |
| 20260831185958 | 64 | 272 | 0.0 | 2.6 | 0.00 | 0.15 | 0.15 | 71 | 1015.8 |
| 20260831185456 | 65 | 275 | 1.7 | 4.3 | 0.00 | 0.15 | 0.15 | 71 | 1015.7 |
| 20260831184957 | 65 | 276 | 1.7 | 4.3 | 0.00 | 0.15 | 0.15 | 70 | 1015.6 |
| 20260831184456 | 65 | 272 | 2.6 | 4.3 | 0.00 | 0.16 | 0.15 | 70 | 1015.6 |
| 20260831183956 | 65 | 281 | 1.7 | 5.2 | 0.00 | 0.16 | 0.15 | 69 | 1015.4 |
| 20260831183457 | 65 | 275 | 3.5 | 5.2 | 0.00 | 0.16 | 0.15 | 69 | 1015.4 |
| 20260831182957 | 66 | 282 | 1.7 | 6.1 | 0.00 | 0.16 | 0.15 | 68 | 1015.4 |
| 20260831182456 | 66 | 278 | 4.3 | 6.1 | 0.00 | 0.16 | 0.15 | 68 | 1015.3 |
| 20260831181955 | 66 | 272 | 3.5 | 6.1 | 0.00 | 0.16 | 0.15 | 67 | 1015.2 |
| 20260831181456 | 67 | 312 | 3.5 | 6.1 | 0.00 | 0.16 | 0.15 | 67 | 1015.1 |
| 20260831180956 | 67 | 296 | 3.5 | 5.2 | 0.00 | 0.16 | 0.15 | 67 | 1015.0 |
| 20260831180456 | 67 | 282 | 1.7 | 9.6 | 0.00 | 0.16 | 0.15 | 66 | 1014.8 |
| 20260831175954 | 67 | 276 | 3.5 | 9.6 | 0.00 | 0.16 | 0.15 | 65 | 1014.8 |
| 20260831175457 | 67 | 323 | 2.6 | 6.1 | 0.00 | 0.16 | 0.15 | 65 | 1014.8 |
| 20260831174954 | 67 | 296 | 3.5 | 10.4 | 0.00 | 0.16 | 0.15 | 64 | 1014.7 |
| 20260831174454 | 68 | 299 | 5.2 | 10.4 | 0.00 | 0.16 | 0.15 | 64 | 1014.7 |
| 20260831173954 | 68 | 276 | 4.3 | 10.4 | 0.00 | 0.16 | 0.15 | 63 | 1014.6 |
| 20260831173837 | 68 | 276 | 5.2 | 13.9 | 0.00 | 0.16 | 0.15 | 62 | 1014.5 |
| 20260831173340 | 68 | 255 | 7.0 | 13.9 | 0.00 | 0.16 | 0.15 | 61 | 1014.5 |
| 20260831172456 | 68 | 281 | 7.0 | 13.9 | 0.00 | 0.16 | 0.15 | 62 | 1014.4 |
| 20260831171955 | 69 | 278 | 6.1 | 13.9 | 0.00 | 0.16 | 0.15 | 61 | 1014.4 |
| 20260831171742 | 69 | 250 | 6.1 | 13.9 | 0.00 | 0.16 | 0.15 | 61 | 1014.3 |
| 20260831171626 | 69 | 288 | 4.3 | 13.9 | 0.00 | 0.16 | 0.15 | 62 | 1014.2 |
| 20260831170835 | 69 | 298 | 7.0 | 13.9 | 0.00 | 0.16 | 0.15 | 60 | 1014.1 |
| 20260831165955 | 69 | 281 | 7.8 | 16.5 | 0.00 | 0.16 | 0.15 | 61 | 1014.0 |
| 20260831165454 | 69 | 305 | 7.0 | 16.5 | 0.00 | 0.16 | 0.15 | 61 | 1014.0 |
| 20260831164953 | 69 | 282 | 7.0 | 15.6 | 0.00 | 0.16 | 0.15 | 61 | 1014.0 |
| 20260831164453 | 69 | 307 | 7.8 | 17.4 | 0.00 | 0.16 | 0.15 | 60 | 1014.0 |
| 20260831164347 | 69 | 348 | 9.6 | 17.4 | 0.00 | 0.16 | 0.15 | 60 | 1013.9 |
| 20260831163843 | 69 | 259 | 4.3 | 14.8 | 0.00 | 0.16 | 0.15 | 61 | 1013.9 |
| 20260831162952 | 69 | 298 | 7.8 | 15.6 | 0.00 | 0.16 | 0.15 | 60 | 1013.8 |
| 20260831162452 | 69 | 258 | 7.0 | 15.6 | 0.00 | 0.16 | 0.15 | 59 | 1013.7 |
| 20260831161952 | 70 | 305 | 9.6 | 17.4 | 0.00 | 0.16 | 0.15 | 59 | 1013.8 |
| 20260831161453 | 70 | 289 | 8.7 | 17.4 | 0.00 | 0.16 | 0.15 | 59 | 1013.7 |
| 20260831160951 | 70 | 336 | 7.0 | 14.8 | 0.00 | 0.16 | 0.15 | 59 | 1013.6 |
| 20260831160451 | 70 | 274 | 7.8 | 20.9 | 0.00 | 0.16 | 0.15 | 59 | 1013.7 |
| 20260831155951 | 70 | 313 | 10.4 | 20.9 | 0.00 | 0.16 | 0.15 | 59 | 1013.6 |
| 20260831155454 | 71 | 299 | 9.6 | 17.4 | 0.00 | 0.16 | 0.15 | 60 | 1013.6 |
| 20260831154951 | 71 | 259 | 8.7 | 15.6 | 0.00 | 0.16 | 0.15 | 60 | 1013.4 |
| 20260831154839 | 71 | 274 | 8.7 | 15.6 | 0.00 | 0.16 | 0.15 | 60 | 1013.4 |
| 20260831153952 | 71 | 354 | 10.4 | 15.6 | 0.00 | 0.16 | 0.15 | 60 | 1013.4 |
| 20260831153452 | 71 | 354 | 7.8 | 15.6 | 0.00 | 0.16 | 0.15 | 60 | 1013.4 |
| 20260831152950 | 71 | 300 | 7.0 | 18.2 | 0.00 | 0.16 | 0.15 | 60 | 1013.3 |
| 20260831152451 | 70 | 243 | 12.2 | 19.1 | 0.00 | 0.16 | 0.15 | 60 | 1013.2 |
| 20260831151951 | 70 | 274 | 12.2 | 19.1 | 0.00 | 0.16 | 0.15 | 61 | 1013.1 |
| 20260831151452 | 70 | 268 | 8.7 | 19.1 | 0.00 | 0.16 | 0.15 | 62 | 1013.1 |
| 20260831151005 | 70 | 341 | 9.6 | 19.1 | 0.00 | 0.16 | 0.15 | 61 | 1013.0 |
| 20260831150452 | 71 | 306 | 4.3 | 14.8 | 0.00 | 0.16 | 0.15 | 62 | 1012.9 |
| 20260831145950 | 70 | 281 | 8.7 | 17.4 | 0.00 | 0.16 | 0.15 | 60 | 1013.0 |
| 20260831145451 | 70 | 313 | 8.7 | 17.4 | 0.00 | 0.16 | 0.15 | 64 | 1012.9 |
| 20260831144951 | 70 | 300 | 8.7 | 14.8 | 0.00 | 0.16 | 0.15 | 62 | 1012.9 |
| 20260831144451 | 70 | 331 | 6.1 | 17.4 | 0.00 | 0.16 | 0.15 | 60 | 1012.8 |
| 20260831143950 | 71 | 288 | 5.2 | 17.4 | 0.00 | 0.16 | 0.15 | 61 | 1012.6 |
| 20260831143449 | 70 | 309 | 8.7 | 13.9 | 0.00 | 0.16 | 0.15 | 63 | 1012.6 |
| 20260831142950 | 69 | 337 | 7.8 | 17.4 | 0.00 | 0.16 | 0.15 | 62 | 1012.5 |
| 20260831142451 | 70 | 289 | 9.6 | 17.4 | 0.00 | 0.16 | 0.15 | 61 | 1012.4 |
| 20260831142337 | 71 | 321 | 7.0 | 16.5 | 0.00 | 0.16 | 0.15 | 60 | 1012.3 |
| 20260831141448 | 71 | 274 | 5.2 | 16.5 | 0.00 | 0.16 | 0.15 | 60 | 1012.2 |
| 20260831141338 | 71 | 321 | 6.1 | 16.5 | 0.00 | 0.16 | 0.15 | 62 | 1012.1 |
| 20260831140449 | 71 | 348 | 9.6 | 16.5 | 0.00 | 0.16 | 0.15 | 60 | 1012.1 |
| 20260831135948 | 71 | 298 | 7.8 | 17.4 | 0.00 | 0.16 | 0.15 | 63 | 1011.9 |
| 20260831135448 | 70 | 275 | 9.6 | 17.4 | 0.00 | 0.16 | 0.15 | 63 | 1011.9 |
| 20260831134950 | 70 | 247 | 7.8 | 13.0 | 0.00 | 0.16 | 0.15 | 66 | 1011.8 |
| 20260831134450 | 69 | 269 | 7.0 | 13.9 | 0.00 | 0.16 | 0.15 | 65 | 1011.8 |
| 20260831133949 | 69 | 336 | 5.2 | 13.9 | 0.00 | 0.16 | 0.15 | 67 | 1011.9 |
| 20260831133450 | 69 | 302 | 4.3 | 15.6 | 0.00 | 0.16 | 0.15 | 71 | 1011.7 |
| 20260831133346 | 70 | 221 | 9.6 | 15.6 | 0.00 | 0.16 | 0.15 | 69 | 1011.9 |
| 20260831132448 | 70 | 272 | 7.8 | 14.8 | 0.00 | 0.16 | 0.15 | 68 | 1011.7 |
| 20260831131948 | 70 | 262 | 7.0 | 14.8 | 0.00 | 0.16 | 0.15 | 68 | 1011.5 |
| 20260831131449 | 70 | 282 | 7.8 | 13.9 | 0.00 | 0.16 | 0.15 | 67 | 1011.5 |
| 20260831131336 | 68 | 265 | 7.8 | 13.0 | 0.00 | 0.16 | 0.15 | 70 | 1011.6 |
| 20260831130449 | 68 | 348 | 6.1 | 19.1 | 0.00 | 0.16 | 0.15 | 71 | 1011.5 |
| 20260831130336 | 68 | 285 | 12.2 | 19.1 | 0.00 | 0.16 | 0.15 | 69 | 1011.4 |
| 20260831125448 | 69 | 252 | 7.8 | 14.8 | 0.00 | 0.16 | 0.15 | 69 | 1011.3 |
| 20260831124946 | 69 | 283 | 9.6 | 14.8 | 0.00 | 0.16 | 0.15 | 70 | 1011.3 |
| 20260831124446 | 68 | 269 | 6.1 | 14.8 | 0.00 | 0.16 | 0.15 | 74 | 1011.3 |
| 20260831123948 | 67 | 244 | 7.8 | 14.8 | 0.00 | 0.16 | 0.15 | 73 | 1011.4 |
| 20260831123446 | 65 | 240 | 8.7 | 13.0 | 0.00 | 0.16 | 0.15 | 78 | 1011.3 |
| 20260831122946 | 64 | 230 | 4.3 | 14.8 | 0.00 | 0.16 | 0.15 | 78 | 1011.3 |
| 20260831122837 | 65 | 282 | 7.0 | 18.2 | 0.00 | 0.16 | 0.15 | 78 | 1011.2 |
| 20260831121946 | 65 | 252 | 11.3 | 18.2 | 0.00 | 0.16 | 0.15 | 76 | 1011.1 |
| 20260831121836 | 65 | 252 | 6.1 | 14.8 | 0.00 | 0.16 | 0.15 | 75 | 1010.9 |
| 20260831120947 | 65 | 264 | 7.8 | 15.6 | 0.00 | 0.16 | 0.15 | 75 | 1010.8 |
| 20260831120445 | 65 | 281 | 9.6 | 15.6 | 0.00 | 0.16 | 0.15 | 75 | 1010.8 |
| 20260831115946 | 65 | 262 | 6.1 | 15.6 | 0.00 | 0.16 | 0.15 | 76 | 1010.8 |
| 20260831115444 | 65 | 268 | 9.6 | 16.5 | 0.00 | 0.16 | 0.15 | 76 | 1010.6 |
| 20260831114945 | 65 | 230 | 10.4 | 16.5 | 0.00 | 0.16 | 0.15 | 76 | 1010.6 |
| 20260831114831 | 66 | 310 | 4.3 | 13.0 | 0.00 | 0.16 | 0.15 | 77 | 1010.6 |
| 20260831113945 | 66 | 278 | 6.1 | 20.0 | 0.00 | 0.16 | 0.15 | 78 | 1010.7 |
| 20260831113446 | 66 | 237 | 10.4 | 20.9 | 0.00 | 0.16 | 0.15 | 78 | 1010.7 |
| 20260831112946 | 65 | 206 | 5.2 | 20.9 | 0.00 | 0.16 | 0.15 | 79 | 1010.6 |
| 20260831112855 | 65 | 266 | 8.7 | 18.2 | 0.00 | 0.16 | 0.15 | 78 | 1010.5 |
| 20260831111944 | 66 | 213 | 11.3 | 18.2 | 0.00 | 0.16 | 0.15 | 79 | 1010.4 |
| 20260831111444 | 65 | 241 | 8.7 | 13.9 | 0.00 | 0.16 | 0.15 | 82 | 1010.3 |
| 20260831110946 | 64 | 224 | 3.5 | 9.6 | 0.00 | 0.17 | 0.15 | 85 | 1010.4 |
| 20260831110445 | 64 | 223 | 5.2 | 12.2 | 0.00 | 0.17 | 0.15 | 84 | 1010.4 |
| 20260831105944 | 64 | 238 | 6.1 | 12.2 | 0.00 | 0.17 | 0.15 | 84 | 1010.5 |
| 20260831105446 | 64 | 240 | 5.2 | 10.4 | 0.00 | 0.17 | 0.15 | 84 | 1010.4 |
| 20260831104944 | 64 | 298 | 5.2 | 13.9 | 0.00 | 0.17 | 0.15 | 84 | 1010.4 |
| 20260831104446 | 64 | 228 | 9.6 | 14.8 | 0.00 | 0.17 | 0.15 | 83 | 1010.6 |
| 20260831103945 | 64 | 259 | 8.7 | 15.6 | 0.01 | 0.17 | 0.15 | 82 | 1010.4 |
| 20260831103444 | 65 | 224 | 10.4 | 15.6 | 0.02 | 0.17 | 0.15 | 82 | 1010.3 |
| 20260831102943 | 65 | 231 | 7.0 | 11.3 | 0.07 | 0.17 | 0.15 | 84 | 1010.4 |
| 20260831102444 | 64 | 274 | 6.1 | 10.4 | 0.07 | 0.17 | 0.15 | 86 | 1010.3 |
| 20260831102331 | 63 | 255 | 5.2 | 13.9 | 0.07 | 0.17 | 0.15 | 85 | 1010.3 |
| 20260831101444 | 63 | 261 | 7.0 | 13.9 | 0.07 | 0.17 | 0.15 | 87 | 1010.4 |
| 20260831100944 | 63 | 231 | 6.1 | 12.2 | 0.07 | 0.17 | 0.15 | 88 | 1010.3 |
| 20260831100444 | 63 | 219 | 7.8 | 12.2 | 0.07 | 0.17 | 0.15 | 87 | 1010.4 |
| 20260831095943 | 62 | 217 | 5.2 | 11.3 | 0.07 | 0.09 | 0.15 | 87 | 1010.2 |
| 20260831095444 | 62 | 233 | 6.1 | 13.0 | 0.07 | 0.09 | 0.15 | 87 | 1010.2 |
| 20260831094941 | 62 | 238 | 7.0 | 13.0 | 0.07 | 0.09 | 0.15 | 86 | 1010.2 |
| 20260831094824 | 62 | 228 | 6.1 | 11.3 | 0.06 | 0.09 | 0.14 | 85 | 1010.1 |
| 20260831093944 | 63 | 281 | 5.2 | 13.0 | 0.06 | 0.09 | 0.13 | 84 | 1010.2 |
| 20260831093443 | 63 | 264 | 7.8 | 17.4 | 0.05 | 0.09 | 0.11 | 83 | 1010.2 |
| 20260831092942 | 64 | 243 | 11.3 | 18.2 | 0.00 | 0.09 | 0.08 | 80 | 1009.9 |
| 20260831092442 | 65 | 233 | 9.6 | 18.2 | 0.00 | 0.09 | 0.08 | 78 | 1009.9 |
| 20260831091940 | 66 | 243 | 8.7 | 15.6 | 0.00 | 0.09 | 0.08 | 78 | 1010.0 |
| 20260831091443 | 66 | 233 | 8.7 | 19.1 | 0.00 | 0.09 | 0.08 | 77 | 1009.9 |
| 20260831090941 | 66 | 234 | 11.3 | 23.5 | 0.00 | 0.09 | 0.08 | 76 | 1009.9 |
| 20260831090444 | 65 | 248 | 10.4 | 23.5 | 0.00 | 0.09 | 0.08 | 77 | 1009.8 |
| 20260831085941 | 65 | 257 | 10.4 | 24.3 | 0.00 | 0.09 | 0.08 | 76 | 1009.8 |
| 20260831085441 | 65 | 290 | 11.3 | 25.2 | 0.00 | 0.09 | 0.08 | 75 | 1009.6 |
| 20260831084942 | 66 | 197 | 14.8 | 25.2 | 0.00 | 0.09 | 0.08 | 74 | 1009.7 |
| 20260831084440 | 66 | 223 | 12.2 | 26.1 | 0.00 | 0.09 | 0.08 | 75 | 1009.6 |
| 20260831083940 | 66 | 234 | 15.6 | 26.1 | 0.00 | 0.09 | 0.08 | 74 | 1009.6 |
| 20260831083442 | 66 | 241 | 11.3 | 20.9 | 0.00 | 0.09 | 0.08 | 74 | 1009.5 |
| 20260831082942 | 66 | 231 | 13.0 | 20.9 | 0.00 | 0.09 | 0.08 | 75 | 1009.4 |
| 20260831082443 | 65 | 196 | 12.2 | 19.1 | 0.00 | 0.09 | 0.08 | 77 | 1009.2 |
| 20260831082321 | 65 | 221 | 8.7 | 19.1 | 0.00 | 0.09 | 0.08 | 77 | 1009.3 |
| 20260831081440 | 65 | 216 | 11.3 | 20.9 | 0.00 | 0.09 | 0.08 | 78 | 1009.3 |
| 20260831080940 | 64 | 162 | 11.3 | 25.2 | 0.00 | 0.09 | 0.08 | 78 | 1009.3 |
| 20260831080826 | 64 | 227 | 10.4 | 25.2 | 0.00 | 0.09 | 0.08 | 78 | 1009.3 |
| 20260831075939 | 64 | 241 | 9.6 | 22.6 | 0.00 | 0.09 | 0.08 | 77 | 1009.4 |
| 20260831075823 | 65 | 261 | 13.0 | 22.6 | 0.00 | 0.09 | 0.08 | 78 | 1009.3 |
| 20260831074939 | 65 | 275 | 7.8 | 18.2 | 0.00 | 0.09 | 0.08 | 78 | 1009.3 |
| 20260831074439 | 65 | 226 | 8.7 | 19.1 | 0.00 | 0.09 | 0.08 | 77 | 1009.3 |
| 20260831073939 | 65 | 221 | 11.3 | 19.1 | 0.00 | 0.09 | 0.08 | 77 | 1009.3 |
| 20260831073438 | 65 | 251 | 8.7 | 17.4 | 0.00 | 0.09 | 0.08 | 78 | 1009.3 |
| 20260831072940 | 65 | 258 | 10.4 | 17.4 | 0.00 | 0.09 | 0.08 | 78 | 1009.2 |
| 20260831072438 | 64 | 235 | 9.6 | 15.6 | 0.00 | 0.09 | 0.08 | 78 | 1009.3 |
| 20260831071940 | 64 | 190 | 8.7 | 17.4 | 0.00 | 0.09 | 0.08 | 79 | 1009.2 |
| 20260831071438 | 64 | 228 | 8.7 | 20.9 | 0.00 | 0.09 | 0.08 | 78 | 1009.2 |
| 20260831070940 | 64 | 226 | 13.0 | 20.9 | 0.00 | 0.09 | 0.08 | 78 | 1009.2 |
| 20260831070827 | 64 | 217 | 9.6 | 19.1 | 0.00 | 0.09 | 0.08 | 79 | 1009.4 |
| 20260831070326 | 64 | 240 | 11.3 | 17.4 | 0.00 | 0.09 | 0.08 | 79 | 1009.4 |
| 20260831065438 | 63 | 240 | 8.7 | 17.4 | 0.00 | 0.09 | 0.08 | 79 | 1009.2 |
| 20260831064938 | 63 | 186 | 10.4 | 17.4 | 0.00 | 0.09 | 0.08 | 79 | 1009.3 |
| 20260831064438 | 63 | 206 | 11.3 | 15.6 | 0.00 | 0.09 | 0.08 | 79 | 1009.3 |
| 20260831063938 | 63 | 226 | 7.0 | 14.8 | 0.00 | 0.09 | 0.08 | 79 | 1009.2 |
| 20260831063436 | 64 | 212 | 10.4 | 14.8 | 0.00 | 0.09 | 0.08 | 79 | 1009.3 |
| 20260831062938 | 64 | 182 | 6.1 | 17.4 | 0.00 | 0.09 | 0.08 | 78 | 1009.3 |
| 20260831062437 | 64 | 234 | 7.8 | 17.4 | 0.00 | 0.09 | 0.08 | 78 | 1009.4 |
| 20260831061938 | 64 | 216 | 8.7 | 15.6 | 0.00 | 0.09 | 0.08 | 79 | 1009.3 |
| 20260831061438 | 64 | 178 | 8.7 | 15.6 | 0.00 | 0.09 | 0.08 | 79 | 1009.3 |
| 20260831060936 | 64 | 219 | 7.8 | 18.2 | 0.00 | 0.09 | 0.08 | 80 | 1009.4 |
| 20260831060436 | 63 | 199 | 14.8 | 18.2 | 0.00 | 0.09 | 0.08 | 80 | 1009.3 |
| 20260831055936 | 63 | 199 | 9.6 | 14.8 | 0.00 | 0.09 | 0.08 | 80 | 1009.0 |
| 20260831055434 | 63 | 224 | 10.4 | 14.8 | 0.00 | 0.09 | 0.08 | 81 | 1009.2 |
| 20260831055324 | 62 | 230 | 9.6 | 15.6 | 0.00 | 0.09 | 0.08 | 81 | 1009.0 |
| 20260831054435 | 62 | 226 | 9.6 | 15.6 | 0.00 | 0.09 | 0.08 | 82 | 1009.0 |
| 20260831053936 | 62 | 213 | 9.6 | 13.9 | 0.00 | 0.09 | 0.08 | 81 | 1009.2 |
| 20260831053435 | 62 | 199 | 8.7 | 13.9 | 0.00 | 0.09 | 0.08 | 82 | 1009.2 |
| 20260831052935 | 62 | 234 | 7.8 | 14.8 | 0.00 | 0.09 | 0.08 | 82 | 1009.1 |
| 20260831052434 | 62 | 202 | 7.8 | 14.8 | 0.00 | 0.09 | 0.08 | 83 | 1009.1 |
| 20260831051934 | 62 | 182 | 9.6 | 13.0 | 0.00 | 0.09 | 0.08 | 83 | 1009.1 |
| 20260831051433 | 62 | 204 | 7.0 | 13.0 | 0.00 | 0.09 | 0.08 | 83 | 1009.0 |
| 20260831050933 | 62 | 209 | 5.2 | 16.5 | 0.00 | 0.09 | 0.08 | 83 | 1009.1 |
| 20260831050437 | 62 | 182 | 10.4 | 18.2 | 0.00 | 0.09 | 0.08 | 83 | 1009.1 |
| 20260831045937 | 62 | 214 | 8.7 | 18.2 | 0.00 | 0.09 | 0.08 | 84 | 1009.2 |
| 20260831045438 | 62 | 223 | 7.8 | 12.2 | 0.00 | 0.09 | 0.08 | 84 | 1009.2 |
| 20260831045313 | 61 | 207 | 6.1 | 12.2 | 0.00 | 0.09 | 0.08 | 84 | 1009.0 |
| 20260831044811 | 62 | 219 | 5.2 | 13.0 | 0.00 | 0.09 | 0.08 | 84 | 1009.1 |
| 20260831043938 | 61 | 196 | 7.8 | 13.0 | 0.00 | 0.09 | 0.08 | 84 | 1009.0 |
| 20260831043435 | 61 | 190 | 5.2 | 11.3 | 0.00 | 0.09 | 0.08 | 84 | 1009.1 |
| 20260831042933 | 61 | 219 | 5.2 | 9.6 | 0.00 | 0.09 | 0.08 | 85 | 1009.1 |
| 20260831042436 | 61 | 224 | 5.2 | 8.7 | 0.00 | 0.09 | 0.08 | 85 | 1009.0 |
| 20260831041934 | 61 | 217 | 5.2 | 9.6 | 0.00 | 0.09 | 0.08 | 85 | 1009.1 |
| 20260831041805 | 61 | 210 | 5.2 | 9.6 | 0.00 | 0.09 | 0.08 | 85 | 1009.0 |
| 20260831040936 | 61 | 233 | 5.2 | 10.4 | 0.00 | 0.09 | 0.08 | 85 | 1009.0 |
| 20260831040804 | 61 | 216 | 4.3 | 11.3 | 0.00 | 0.09 | 0.08 | 85 | 1009.2 |
| 20260831035933 | 61 | 192 | 7.0 | 11.3 | 0.00 | 0.09 | 0.08 | 85 | 1009.2 |
| 20260831035433 | 61 | 200 | 7.0 | 11.3 | 0.00 | 0.09 | 0.08 | 85 | 1009.2 |
| 20260831034934 | 61 | 210 | 4.3 | 13.9 | 0.00 | 0.09 | 0.08 | 85 | 1009.3 |
| 20260831034433 | 61 | 210 | 6.1 | 13.9 | 0.00 | 0.09 | 0.08 | 85 | 1009.3 |
| 20260831033931 | 62 | 210 | 7.0 | 11.3 | 0.00 | 0.09 | 0.08 | 85 | 1009.3 |
| 20260831033432 | 62 | 190 | 7.8 | 11.3 | 0.00 | 0.09 | 0.08 | 85 | 1009.4 |
| 20260831032933 | 62 | 228 | 7.8 | 11.3 | 0.00 | 0.09 | 0.08 | 85 | 1009.5 |
| 20260831032707 | 62 | 230 | 4.3 | 10.4 | 0.00 | 0.09 | 0.08 | 86 | 1009.4 |
| 20260831032558 | 62 | 183 | 6.1 | 11.3 | 0.00 | 0.09 | 0.08 | 86 | 1009.3 |
| 20260831031432 | 61 | 254 | 6.1 | 11.3 | 0.00 | 0.09 | 0.08 | 86 | 1009.4 |
| 20260831030944 | 61 | 241 | 4.3 | 13.0 | 0.01 | 0.09 | 0.08 | 86 | 1009.3 |
| 20260831030433 | 61 | 213 | 6.1 | 13.0 | 0.01 | 0.09 | 0.08 | 86 | 1009.3 |
| 20260831025932 | 61 | 221 | 7.0 | 13.0 | 0.01 | 0.09 | 0.08 | 86 | 1009.4 |
| 20260831025432 | 61 | 223 | 7.0 | 11.3 | 0.01 | 0.09 | 0.08 | 87 | 1009.4 |
| 20260831025309 | 61 | 231 | 5.2 | 9.6 | 0.01 | 0.09 | 0.08 | 87 | 1009.4 |
| 20260831024434 | 61 | 213 | 4.3 | 9.6 | 0.01 | 0.09 | 0.08 | 87 | 1009.4 |
| 20260831023933 | 61 | 274 | 5.2 | 9.6 | 0.01 | 0.09 | 0.08 | 87 | 1009.4 |
| 20260831023432 | 61 | 219 | 4.3 | 8.7 | 0.01 | 0.09 | 0.08 | 87 | 1009.4 |
| 20260831022931 | 61 | 206 | 4.3 | 8.7 | 0.01 | 0.09 | 0.08 | 88 | 1009.3 |
| 20260831022431 | 61 | 240 | 4.3 | 10.4 | 0.01 | 0.09 | 0.08 | 88 | 1009.2 |
| 20260831021931 | 61 | 212 | 6.1 | 10.4 | 0.01 | 0.09 | 0.08 | 88 | 1009.2 |
| 20260831021431 | 61 | 199 | 4.3 | 10.4 | 0.01 | 0.09 | 0.08 | 88 | 1009.2 |
| 20260831021307 | 61 | 206 | 5.2 | 8.7 | 0.00 | 0.09 | 0.07 | 88 | 1009.3 |
| 20260831020431 | 61 | 234 | 5.2 | 7.8 | 0.00 | 0.09 | 0.07 | 88 | 1009.2 |
| 20260831015932 | 61 | 221 | 3.5 | 7.8 | 0.00 | 0.09 | 0.07 | 88 | 1009.2 |
| 20260831015431 | 61 | 259 | 4.3 | 7.8 | 0.00 | 0.09 | 0.07 | 88 | 1009.3 |
| 20260831014934 | 61 | 216 | 3.5 | 6.1 | 0.00 | 0.09 | 0.07 | 88 | 1009.1 |
| 20260831014430 | 61 | 226 | 3.5 | 6.1 | 0.00 | 0.09 | 0.07 | 88 | 1009.1 |
| 20260831013930 | 61 | 238 | 4.3 | 7.8 | 0.00 | 0.09 | 0.07 | 88 | 1009.2 |
| 20260831013430 | 61 | 192 | 4.3 | 7.8 | 0.07 | 0.09 | 0.07 | 88 | 1009.2 |
| 20260831012932 | 62 | 216 | 4.3 | 6.1 | 0.07 | 0.09 | 0.07 | 88 | 1009.3 |
| 20260831012430 | 62 | 223 | 3.5 | 8.7 | 0.07 | 0.09 | 0.07 | 88 | 1009.4 |
| 20260831011930 | 62 | 203 | 4.3 | 8.7 | 0.07 | 0.09 | 0.07 | 88 | 1009.4 |
| 20260831011431 | 62 | 238 | 4.3 | 8.7 | 0.07 | 0.09 | 0.07 | 88 | 1009.4 |
| 20260831011313 | 62 | 258 | 4.3 | 11.3 | 0.07 | 0.09 | 0.07 | 88 | 1009.5 |
| 20260831010430 | 62 | 240 | 6.1 | 11.3 | 0.07 | 0.09 | 0.07 | 87 | 1009.5 |
| 20260831005929 | 62 | 206 | 5.2 | 10.4 | 0.07 | 0.02 | 0.07 | 87 | 1009.5 |
| 20260831005431 | 62 | 220 | 5.2 | 11.3 | 0.07 | 0.02 | 0.07 | 87 | 1009.5 |
| 20260831004930 | 63 | 190 | 6.1 | 11.3 | 0.07 | 0.02 | 0.07 | 88 | 1009.6 |
| 20260831004428 | 63 | 210 | 7.0 | 12.2 | 0.07 | 0.02 | 0.07 | 88 | 1009.6 |
| 20260831003928 | 63 | 220 | 7.0 | 12.2 | 0.07 | 0.02 | 0.07 | 87 | 1009.7 |
| 20260831003430 | 63 | 230 | 5.2 | 9.6 | 0.00 | 0.02 | 0.00 | 87 | 1009.7 |
| 20260831002929 | 62 | 235 | 5.2 | 9.6 | 0.00 | 0.02 | 0.00 | 87 | 1009.6 |
| 20260831002429 | 62 | 240 | 3.5 | 5.2 | 0.00 | 0.02 | 0.00 | 87 | 1009.4 |
| 20260831001927 | 62 | 210 | 2.6 | 5.2 | 0.00 | 0.02 | 0.00 | 87 | 1009.6 |
| 20260831001427 | 62 | 216 | 3.5 | 5.2 | 0.00 | 0.02 | 0.00 | 87 | 1009.7 |
| 20260831000930 | 62 | 195 | 2.6 | 3.5 | 0.00 | 0.02 | 0.00 | 86 | 1009.5 |
| 20260831000427 | 62 | 202 | 2.6 | 3.5 | 0.00 | 0.02 | 0.00 | 86 | 1009.6 |
| 20260830235928 | 62 | 200 | 1.7 | 2.6 | 0.00 | 0.02 | 0.00 | 86 | 1009.6 |
| 20260830235441 | 62 | 200 | 1.7 | 2.6 | 0.00 | 0.02 | 0.00 | 86 | 1009.6 |
| 20260830234927 | 62 | 200 | 0.9 | 2.6 | 0.00 | 0.02 | 0.00 | 86 | 1009.7 |
| 20260830234428 | 0 | 200 | 1.7 | 3.5 | 0.00 | 0.02 | 0.00 | 1009.8 | |
| 20260830233926 | 62 | 197 | 2.6 | 3.5 | 0.00 | 0.02 | 0.00 | 85 | 1009.9 |
| 20260830233426 | 62 | 196 | 1.7 | 4.3 | 0.00 | 0.02 | 0.00 | 85 | 1009.8 |
| 20260830232926 | 63 | 195 | 1.7 | 4.3 | 0.00 | 0.02 | 0.00 | 85 | 1009.8 |
| 20260830232426 | 63 | 159 | 0.9 | 4.3 | 0.00 | 0.02 | 0.00 | 85 | 1009.6 |
| 20260830231928 | 63 | 176 | 2.6 | 3.5 | 0.00 | 0.02 | 0.00 | 85 | 1009.5 |
| 20260830231918 | 63 | 178 | 2.6 | 4.3 | 0.00 | 0.02 | 0.00 | 85 | 1009.8 |
| 20260830231538 | 63 | 169 | 2.6 | 5.2 | 0.00 | 0.02 | 0.00 | 85 | 1009.8 |
| 20260830231500 | 63 | 180 | 2.6 | 5.2 | 0.00 | 0.02 | 0.00 | 85 | 1009.7 |
| 20260830225926 | 63 | 175 | 2.6 | 4.3 | 0.00 | 0.02 | 0.00 | 85 | 1009.7 |
| 20260830225815 | 63 | 180 | 1.7 | 4.3 | 0.00 | 0.02 | 0.00 | 85 | 1009.8 |
| 20260830224927 | 0 | 185 | 2.6 | 4.3 | 0.00 | 0.02 | 0.00 | 1009.9 | |
| 20260830224807 | 63 | 202 | 1.7 | 4.3 | 0.00 | 0.02 | 0.00 | 85 | 1009.9 |
| 20260830223928 | 63 | 196 | 2.6 | 4.3 | 0.00 | 0.02 | 0.00 | 85 | 1009.9 |
| 20260830223809 | 63 | 209 | 2.6 | 4.3 | 0.00 | 0.02 | 0.00 | 85 | 1009.9 |
| 20260830222926 | 63 | 180 | 2.6 | 4.3 | 0.00 | 0.02 | 0.00 | 85 | 1009.8 |
| 20260830222425 | 63 | 180 | 1.7 | 4.3 | 0.00 | 0.02 | 0.00 | 85 | 1009.9 |
| 20260830221925 | 63 | 190 | 2.6 | 3.5 | 0.00 | 0.02 | 0.00 | 85 | 1010.0 |
| 20260830221426 | 63 | 197 | 1.7 | 4.3 | 0.00 | 0.02 | 0.00 | 85 | 1009.9 |
| 20260830220925 | 63 | 182 | 2.6 | 5.2 | 0.00 | 0.02 | 0.00 | 85 | 1010.0 |
| 20260830220424 | 63 | 190 | 2.6 | 5.2 | 0.00 | 0.02 | 0.00 | 85 | 1010.0 |
| 20260830215924 | 63 | 185 | 2.6 | 4.3 | 0.00 | 0.02 | 0.02 | 85 | 1009.9 |
| 20260830215427 | 63 | 188 | 1.7 | 4.3 | 0.00 | 0.02 | 0.02 | 84 | 1010.0 |
| 20260830214925 | 0 | 161 | 2.6 | 4.3 | 0.00 | 0.02 | 0.02 | 1010.0 | |
| 20260830214801 | 63 | 173 | 2.6 | 4.3 | 0.00 | 0.02 | 0.02 | 84 | 1010.2 |
| 20260830213925 | 63 | 173 | 2.6 | 4.3 | 0.00 | 0.02 | 0.02 | 84 | 1010.2 |
| 20260830213811 | 63 | 178 | 1.7 | 3.5 | 0.00 | 0.02 | 0.02 | 84 | 1010.3 |
| 20260830212925 | 63 | 173 | 1.7 | 3.5 | 0.00 | 0.02 | 0.02 | 84 | 1010.4 |
| 20260830212425 | 64 | 169 | 0.0 | 4.3 | 0.00 | 0.02 | 0.02 | 84 | 1010.4 |
| 20260830212050 | 64 | 203 | 0.0 | 0.0 | 0.00 | 0.02 | 0.02 | 83 | 1010.4 |
| 20260830212041 | 64 | 202 | 0.0 | 0.0 | 0.00 | 0.02 | 0.02 | 83 | 1010.4 |
| 20260830212003 | 64 | 171 | 2.6 | 4.3 | 0.00 | 0.02 | 0.02 | 83 | 1010.4 |
| 20260830210423 | 64 | 203 | 0.0 | 0.0 | 0.00 | 0.02 | 0.02 | 82 | 1010.3 |
| 20260830205922 | 64 | 207 | 0.0 | 3.5 | 0.00 | 0.02 | 0.02 | 82 | 1010.4 |
| 20260830205805 | 64 | 212 | 0.9 | 4.3 | 0.00 | 0.02 | 0.02 | 82 | 1010.4 |
| 20260830204922 | 64 | 217 | 2.6 | 4.3 | 0.00 | 0.02 | 0.02 | 82 | 1010.4 |
| 20260830204424 | 64 | 178 | 1.7 | 5.2 | 0.00 | 0.02 | 0.02 | 82 | 1010.5 |